User: anonymous   Login
Location: Betzi
(47.2343°N, 9.5260°E)
Time: 10:19:21
(UTC+00:00)
Language:

CZ-4C R/B - Orbit

View from above orbital plane
View from above orbital plane
View from above satellite
View from above satellite

Ground track
Ground track

The orbit data is extracted from the following two-line orbital elements,

1 36416U 10009D   22224.76719850  .00000072  00000-0  68482-4 0  9996
2 36416  63.4109 244.9163 0572252 356.4564   3.2496 13.69713241622012
Epoch (UTC): 12 August 2022 18:24:45
Eccentricity: 0.0572252
inclination: 63.4109°
perigee height: 578 km
apogee height: 1423 km
right ascension of ascending node: 244.9163°
argument of perigee: 356.4564°
revolutions per day: 13.69713241
mean anomaly at epoch: 3.2496°
orbit number at epoch: 62201

The dashed part of the orbit path shows where the satellite is in the earth's shadow,  

DLR